Regional Weather Roundup
Issued by NWS Charleston, WV

Home | Current Version | Previous Version | Graphics & Text | Print | Product List | Glossary On
Versions: 1 2 3 4 5 6 7 8 9 10 11 12 13 14 15 16 17 18 19 20 21 22 23 24 25 26 27 28 29 30 31 32 33 34 35 36 37 38 39 40 41 42 43 44 45 46 47
000
ASUS41 KRLX 190710
RWRRLX
West Virginia Regional Weather Roundup
National Weather Service Charleston WV
200 AM EST SUN NOV 19 2017

Note: "fair" indicates few or no clouds below 12,000 feet with no
significant weather and/or obstructions to visibility.

WVZ003-190800-
Northern Panhandle of West Virginia

CITY           SKY/WX    TMP DP  RH WIND       PRES   REMARKS
WHEELING       LGT RAIN  36  34  92 W16G29    29.51R
$$

WVZ009-190800-
Northwest West Virginia

CITY           SKY/WX    TMP DP  RH WIND       PRES   REMARKS
PARKERSBURG    LGT RAIN  39  35  86 W14G28    29.68R
$$

WVZ006-190800-
Western West Virginia

CITY           SKY/WX    TMP DP  RH WIND       PRES   REMARKS
HUNTINGTON     CLOUDY    43  35  73 NW12G22   29.76R
$$

WVZ015-190800-
West Central West Virginia

CITY           SKY/WX    TMP DP  RH WIND       PRES   REMARKS
CHARLESTON     CLOUDY    44  36  73 W22G33    29.71R
$$

WVZ022-031-190800-
North Central West Virginia

CITY           SKY/WX    TMP DP  RH WIND       PRES   REMARKS
CLARKSBURG     RAIN      45  39  79 W18G37    29.52R
MORGANTOWN     LGT RAIN  45  40  82 W8        29.48R
$$

WVZ025-035-042-045-190800-
Southern West Virginia

CITY           SKY/WX    TMP DP  RH WIND       PRES   REMARKS
BECKLEY        LGT RAIN  41  38  89 W18G32    29.63R
LOGAN          LGT RAIN  41  39  93 W9G22     29.73R
BLUEFIELD      LGT RAIN  41  37  86 W20G40    29.63R
LEWISBURG      CLOUDY    49  43  78 W14G33    29.56R
$$

WVZ047-190800-
Northern Mountains of West Virginia

CITY           SKY/WX    TMP DP  RH WIND       PRES   REMARKS
ELKINS         LGT RAIN  46  39  76 W21G48    29.50R
$$

WVZ052-190800-
Eastern Panhandle of West Virginia

CITY           SKY/WX    TMP DP  RH WIND       PRES   REMARKS
MARTINSBURG    CLOUDY    56  49  77 S8        29.27F
PETERSBURG     LGT RAIN  58  47  66 W18G30    29.35R
$$




USA.gov is the U.S. government's official web portal to all federal, state and local government web resources and services.